Aviation Digital Data Service (ADDS)

Output produced by METARs form (0258 UTC 18 August 2017)
found at http://www.aviationweather.gov/adds/metars/
 
LGAD 180250Z 00000KT CAVOK 19/13 Q1012
TAF LGAD 180200Z 1803/1812 VRB03KT 9999 FEW025 
     BECMG 1806/1808 02010KT
       
LGAL 180250Z VRB03KT CAVOK 19/15 Q1012
TAF LGAL 180200Z 1803/1812 02005KT 9999 FEW025 
     BECMG 1806/1808 02015KT 
     TEMPO 1808/1812 02012G22KT
       
LGAV 180250Z 01008KT CAVOK 27/09 Q1012 NOSIG
TAF LGAV 172300Z 1800/1824 01012KT 9999 FEW025 
     BECMG 1804/1806 02020G30KT 
     TEMPO 1808/1814 02025G35KT 
     BECMG 1816/1818 35012KT
       
LGBL 180250Z 27006KT CAVOK 23/10 Q1013
TAF LGBL 180200Z 1803/1812 28010KT 9999 FEW030 
     BECMG 1807/1809 11010KT
       
LGEL 180250Z 35008KT CAVOK 27/10 Q1011
TAF LGEL 172300Z 1800/1824 35012KT 9999 FEW025 
     BECMG 1805/1807 36015G25KT 
     BECMG 1816/1818 35010KT
       
LGHI 180250Z 01009KT 320V070 CAVOK 25/18 Q1008
TAF LGHI 180200Z 1803/1812 01014KT 9999 FEW025 
     TEMPO 1806/1812 01014G24KT
       
TAF LGIO 180200Z 1803/1812 VRB05KT 9999 FEW030
       
LGIR 180250Z 28009KT 9999 FEW025 26/19 Q1009 NOSIG
TAF LGIR 172300Z 1800/1824 31018KT 9999 FEW020 SCT025
       
TAF LGKC 180200Z 1803/1812 36010KT 9999 FEW020 
     BECMG 1803/1805 01015G25KT
       
LGKF 180250Z 00000KT 9999 FEW016 22/18 Q1012
TAF LGKF 180200Z 1803/1812 VRB05KT 9999 FEW018 
     BECMG 1810/1812 33010KT
       
LGKL 180250Z 32007KT CAVOK 19/11 Q1012
TAF LGKL 180200Z 1803/1812 32008KT 9999 FEW030 
     BECMG 1806/1808 02010KT 
     TEMPO 1808/1812 02010G20KT
       
LGKO 180250Z 36008KT 9999 FEW025 24/18 Q1006
TAF LGKO 172300Z 1800/1824 34010KT 9999 FEW018
       
LGKP 180250Z 31017KT 9999 FEW020 24/22 Q1006
TAF LGKP 180200Z 1803/1812 31018KT 9999 FEW020 
     BECMG 1803/1805 31023G33KT
       
LGKR 180250Z 27002KT CAVOK 22/19 Q1012 NOSIG
TAF LGKR 172300Z 1800/1824 VRB05KT 9999 FEW020 
     TEMPO 1811/1815 26012KT
       
LGKV 180250Z 04004KT CAVOK 20/13 Q1013
TAF LGKV 180200Z 1803/1812 36005KT 9999 FEW025 
     BECMG 1806/1808 05012KT
       
LGLM 180250Z 02008KT CAVOK 25/14 Q1012
TAF LGLM 180200Z 1803/1812 04015KT 9999 FEW020 
     TEMPO 1806/1810 04015G25KT
       
TAF LGLR 180200Z 1803/1812 VRB03KT 9999 FEW030 
     BECMG 1807/1809 09010KT
       
LGMK 180250Z 01013KT CAVOK 23/18 Q1008
TAF LGMK 180200Z 1803/1812 36018KT 9999 FEW018 
     BECMG 1803/1805 36025G35KT
       
LGMT 180250Z 33011KT CAVOK 25/19 Q1010
TAF LGMT 180200Z 1803/1812 32012KT 9999 FEW020
       
LGNX 180250Z 36010KT CAVOK 24/20 Q1008
LGPA 180250Z 01010KT CAVOK 24/18 Q1009
LGPZ 180250Z 07007KT CAVOK 25/21 Q1012
TAF LGPZ 172300Z 1800/1824 05006KT 9999 FEW025 
     BECMG 1810/1812 27012KT 
     TEMPO 1812/1815 FEW025 SCT080 
     BECMG 1822/1824 05006KT
       
LGRP 180250Z VRB02KT CAVOK 25/22 Q1005 NOSIG
TAF LGRP 172300Z 1800/1824 24010KT 9999 FEW018 
     BECMG 1800/1802 15010KT 
     BECMG 1810/1812 26012KT
       
LGRX 180250Z 00000KT CAVOK 21/13 Q1012
TAF LGRX 180200Z 1803/1812 07010KT 9999 FEW025 
     BECMG 1810/1812 27010KT
       
LGSA 180250Z 30006KT 9999 FEW025 24/20 Q1010
TAF LGSA 172300Z 1800/1824 30012KT 9999 FEW025 SCT050 
     BECMG 1804/1806 34015G25KT 
     BECMG 1813/1815 31010KT
       
LGSK 180250Z 00000KT CAVOK 25/21 Q1013
TAF LGSK 180200Z 1803/1812 01008KT 9999 FEW025
       
LGSM 180250Z 02007KT CAVOK 25/17 Q1007
TAF LGSM 180200Z 1803/1812 36013KT 9999 FEW025
       
LGSR 180250Z 28006KT CAVOK 24/18 Q1008
TAF LGSR 172300Z 1800/1824 34015KT CAVOK
       
TAF LGST 180200Z 1803/1812 30015G25KT 9999 FEW020
       
TAF LGSY 180200Z 1803/1812 02015KT 9999 FEW025
       
TAF LGTG 180200Z 1803/1812 33010KT 9999 FEW030 
     TEMPO 1807/1812 35012G22KT
       
TAF LGTL 180200Z 1803/1812 35010KT 9999 FEW018 SCT025 
     TEMPO 1807/1812 35010G22KT
       
LGTS 180250Z 33008KT 9999 FEW035 26/16 Q1014 NOSIG
TAF LGTS 172300Z 1800/1824 30010KT 9999 FEW030 
     BECMG 1812/1814 24010KT 
     BECMG 1818/1820 VRB03KT
       
LGZA 180250Z 00000KT CAVOK 22/17 Q1012
TAF LGZA 180200Z 1803/1812 VRB05KT 9999 FEW020 
     BECMG 1804/1806 01010KT
       
LGPZ 180250Z 07007KT CAVOK 25/21 Q1012
TAF LGPZ 172300Z 1800/1824 05006KT 9999 FEW025 
     BECMG 1810/1812 27012KT 
     TEMPO 1812/1815 FEW025 SCT080 
     BECMG 1822/1824 05006KT
       
TAF LGKC 180200Z 1803/1812 36010KT 9999 FEW020 
     BECMG 1803/1805 01015G25KT
       
LGKF 180250Z 00000KT 9999 FEW016 22/18 Q1012
TAF LGKF 180200Z 1803/1812 VRB05KT 9999 FEW018 
     BECMG 1810/1812 33010KT
       
LGKL 180250Z 32007KT CAVOK 19/11 Q1012
TAF LGKL 180200Z 1803/1812 32008KT 9999 FEW030 
     BECMG 1806/1808 02010KT 
     TEMPO 1808/1812 02010G20KT
       
LGKO 180250Z 36008KT 9999 FEW025 24/18 Q1006
TAF LGKO 172300Z 1800/1824 34010KT 9999 FEW018
       
LGKP 180250Z 31017KT 9999 FEW020 24/22 Q1006
TAF LGKP 180200Z 1803/1812 31018KT 9999 FEW020 
     BECMG 1803/1805 31023G33KT
       
LGKR 180250Z 27002KT CAVOK 22/19 Q1012 NOSIG
TAF LGKR 172300Z 1800/1824 VRB05KT 9999 FEW020 
     TEMPO 1811/1815 26012KT
       
LGKV 180250Z 04004KT CAVOK 20/13 Q1013
TAF LGKV 180200Z 1803/1812 36005KT 9999 FEW025 
     BECMG 1806/1808 05012KT
       
LGAD 180250Z 00000KT CAVOK 19/13 Q1012
TAF LGAD 180200Z 1803/1812 VRB03KT 9999 FEW025 
     BECMG 1806/1808 02010KT
       
LGRX 180250Z 00000KT CAVOK 21/13 Q1012
TAF LGRX 180200Z 1803/1812 07010KT 9999 FEW025 
     BECMG 1810/1812 27010KT
       
LGHI 180250Z 01009KT 320V070 CAVOK 25/18 Q1008
TAF LGHI 180200Z 1803/1812 01014KT 9999 FEW025 
     TEMPO 1806/1812 01014G24KT
       
LGRP 180250Z VRB02KT CAVOK 25/22 Q1005 NOSIG
TAF LGRP 172300Z 1800/1824 24010KT 9999 FEW018 
     BECMG 1800/1802 15010KT 
     BECMG 1810/1812 26012KT
       
LGAL 180250Z VRB03KT CAVOK 19/15 Q1012
TAF LGAL 180200Z 1803/1812 02005KT 9999 FEW025 
     BECMG 1806/1808 02015KT 
     TEMPO 1808/1812 02012G22KT
       
LGEL 180250Z 35008KT CAVOK 27/10 Q1011
TAF LGEL 172300Z 1800/1824 35012KT 9999 FEW025 
     BECMG 1805/1807 36015G25KT 
     BECMG 1816/1818 35010KT
       
LGAV 180250Z 01008KT CAVOK 27/09 Q1012 NOSIG
TAF LGAV 172300Z 1800/1824 01012KT 9999 FEW025 
     BECMG 1804/1806 02020G30KT 
     TEMPO 1808/1814 02025G35KT 
     BECMG 1816/1818 35012KT
       
TAF LGIO 180200Z 1803/1812 VRB05KT 9999 FEW030
       
LGKR 180250Z 27002KT CAVOK 22/19 Q1012 NOSIG
TAF LGKR 172300Z 1800/1824 VRB05KT 9999 FEW020 
     TEMPO 1811/1815 26012KT
       
LGKL 180250Z 32007KT CAVOK 19/11 Q1012
TAF LGKL 180200Z 1803/1812 32008KT 9999 FEW030 
     BECMG 1806/1808 02010KT 
     TEMPO 1808/1812 02010G20KT
       
LGKP 180250Z 31017KT 9999 FEW020 24/22 Q1006
TAF LGKP 180200Z 1803/1812 31018KT 9999 FEW020 
     BECMG 1803/1805 31023G33KT
       
TAF LGTL 180200Z 1803/1812 35010KT 9999 FEW018 SCT025 
     TEMPO 1807/1812 35010G22KT
       
LGKF 180250Z 00000KT 9999 FEW016 22/18 Q1012
TAF LGKF 180200Z 1803/1812 VRB05KT 9999 FEW018 
     BECMG 1810/1812 33010KT
       
TAF LGKC 180200Z 1803/1812 36010KT 9999 FEW020 
     BECMG 1803/1805 01015G25KT
       
LGKO 180250Z 36008KT 9999 FEW025 24/18 Q1006
TAF LGKO 172300Z 1800/1824 34010KT 9999 FEW018
       
TAF LGLR 180200Z 1803/1812 VRB03KT 9999 FEW030 
     BECMG 1807/1809 09010KT
       
LGLM 180250Z 02008KT CAVOK 25/14 Q1012
TAF LGLM 180200Z 1803/1812 04015KT 9999 FEW020 
     TEMPO 1806/1810 04015G25KT
       
LGTS 180250Z 33008KT 9999 FEW035 26/16 Q1014 NOSIG
TAF LGTS 172300Z 1800/1824 30010KT 9999 FEW030 
     BECMG 1812/1814 24010KT 
     BECMG 1818/1820 VRB03KT
       
LGKV 180250Z 04004KT CAVOK 20/13 Q1013
TAF LGKV 180200Z 1803/1812 36005KT 9999 FEW025 
     BECMG 1806/1808 05012KT
       
LGMK 180250Z 01013KT CAVOK 23/18 Q1008
TAF LGMK 180200Z 1803/1812 36018KT 9999 FEW018 
     BECMG 1803/1805 36025G35KT
       
LGMT 180250Z 33011KT CAVOK 25/19 Q1010
TAF LGMT 180200Z 1803/1812 32012KT 9999 FEW020
       
LGBL 180250Z 27006KT CAVOK 23/10 Q1013
TAF LGBL 180200Z 1803/1812 28010KT 9999 FEW030 
     BECMG 1807/1809 11010KT
       
LGIR 180250Z 28009KT 9999 FEW025 26/19 Q1009 NOSIG
TAF LGIR 172300Z 1800/1824 31018KT 9999 FEW020 SCT025
       
LGAD 180250Z 00000KT CAVOK 19/13 Q1012
TAF LGAD 180200Z 1803/1812 VRB03KT 9999 FEW025 
     BECMG 1806/1808 02010KT
       
LGAL 180250Z VRB03KT CAVOK 19/15 Q1012
TAF LGAL 180200Z 1803/1812 02005KT 9999 FEW025 
     BECMG 1806/1808 02015KT 
     TEMPO 1808/1812 02012G22KT
       
LGAV 180250Z 01008KT CAVOK 27/09 Q1012 NOSIG
TAF LGAV 172300Z 1800/1824 01012KT 9999 FEW025 
     BECMG 1804/1806 02020G30KT 
     TEMPO 1808/1814 02025G35KT 
     BECMG 1816/1818 35012KT
       
LGBL 180250Z 27006KT CAVOK 23/10 Q1013
TAF LGBL 180200Z 1803/1812 28010KT 9999 FEW030 
     BECMG 1807/1809 11010KT
       
LGEL 180250Z 35008KT CAVOK 27/10 Q1011
TAF LGEL 172300Z 1800/1824 35012KT 9999 FEW025 
     BECMG 1805/1807 36015G25KT 
     BECMG 1816/1818 35010KT
       
LGHI 180250Z 01009KT 320V070 CAVOK 25/18 Q1008
TAF LGHI 180200Z 1803/1812 01014KT 9999 FEW025 
     TEMPO 1806/1812 01014G24KT
       
TAF LGIO 180200Z 1803/1812 VRB05KT 9999 FEW030
       
LGIR 180250Z 28009KT 9999 FEW025 26/19 Q1009 NOSIG
TAF LGIR 172300Z 1800/1824 31018KT 9999 FEW020 SCT025
       
TAF LGKC 180200Z 1803/1812 36010KT 9999 FEW020 
     BECMG 1803/1805 01015G25KT
       
LGKF 180250Z 00000KT 9999 FEW016 22/18 Q1012
TAF LGKF 180200Z 1803/1812 VRB05KT 9999 FEW018 
     BECMG 1810/1812 33010KT
       
LGKL 180250Z 32007KT CAVOK 19/11 Q1012
TAF LGKL 180200Z 1803/1812 32008KT 9999 FEW030 
     BECMG 1806/1808 02010KT 
     TEMPO 1808/1812 02010G20KT
       
LGKO 180250Z 36008KT 9999 FEW025 24/18 Q1006
TAF LGKO 172300Z 1800/1824 34010KT 9999 FEW018
       
LGKP 180250Z 31017KT 9999 FEW020 24/22 Q1006
TAF LGKP 180200Z 1803/1812 31018KT 9999 FEW020 
     BECMG 1803/1805 31023G33KT
       
LGKR 180250Z 27002KT CAVOK 22/19 Q1012 NOSIG
TAF LGKR 172300Z 1800/1824 VRB05KT 9999 FEW020 
     TEMPO 1811/1815 26012KT
       
LGKV 180250Z 04004KT CAVOK 20/13 Q1013
TAF LGKV 180200Z 1803/1812 36005KT 9999 FEW025 
     BECMG 1806/1808 05012KT
       
LGLM 180250Z 02008KT CAVOK 25/14 Q1012
TAF LGLM 180200Z 1803/1812 04015KT 9999 FEW020 
     TEMPO 1806/1810 04015G25KT
       
TAF LGLR 180200Z 1803/1812 VRB03KT 9999 FEW030 
     BECMG 1807/1809 09010KT
       
LGMK 180250Z 01013KT CAVOK 23/18 Q1008
TAF LGMK 180200Z 1803/1812 36018KT 9999 FEW018 
     BECMG 1803/1805 36025G35KT
       
LGMT 180250Z 33011KT CAVOK 25/19 Q1010
TAF LGMT 180200Z 1803/1812 32012KT 9999 FEW020
       
LGNX 180250Z 36010KT CAVOK 24/20 Q1008
LGPA 180250Z 01010KT CAVOK 24/18 Q1009
LGPZ 180250Z 07007KT CAVOK 25/21 Q1012
TAF LGPZ 172300Z 1800/1824 05006KT 9999 FEW025 
     BECMG 1810/1812 27012KT 
     TEMPO 1812/1815 FEW025 SCT080 
     BECMG 1822/1824 05006KT
       
LGRP 180250Z VRB02KT CAVOK 25/22 Q1005 NOSIG
TAF LGRP 172300Z 1800/1824 24010KT 9999 FEW018 
     BECMG 1800/1802 15010KT 
     BECMG 1810/1812 26012KT
       
LGRX 180250Z 00000KT CAVOK 21/13 Q1012
TAF LGRX 180200Z 1803/1812 07010KT 9999 FEW025 
     BECMG 1810/1812 27010KT
       
LGSA 180250Z 30006KT 9999 FEW025 24/20 Q1010
TAF LGSA 172300Z 1800/1824 30012KT 9999 FEW025 SCT050 
     BECMG 1804/1806 34015G25KT 
     BECMG 1813/1815 31010KT
       
LGSK 180250Z 00000KT CAVOK 25/21 Q1013
TAF LGSK 180200Z 1803/1812 01008KT 9999 FEW025
       
LGSM 180250Z 02007KT CAVOK 25/17 Q1007
TAF LGSM 180200Z 1803/1812 36013KT 9999 FEW025
       
LGSR 180250Z 28006KT CAVOK 24/18 Q1008
TAF LGSR 172300Z 1800/1824 34015KT CAVOK
       
TAF LGST 180200Z 1803/1812 30015G25KT 9999 FEW020
       
TAF LGSY 180200Z 1803/1812 02015KT 9999 FEW025
       
TAF LGTG 180200Z 1803/1812 33010KT 9999 FEW030 
     TEMPO 1807/1812 35012G22KT
       
TAF LGTL 180200Z 1803/1812 35010KT 9999 FEW018 SCT025 
     TEMPO 1807/1812 35010G22KT
       
LGTS 180250Z 33008KT 9999 FEW035 26/16 Q1014 NOSIG
TAF LGTS 172300Z 1800/1824 30010KT 9999 FEW030 
     BECMG 1812/1814 24010KT 
     BECMG 1818/1820 VRB03KT
       
LGZA 180250Z 00000KT CAVOK 22/17 Q1012
TAF LGZA 180200Z 1803/1812 VRB05KT 9999 FEW020 
     BECMG 1804/1806 01010KT
       
LGAD 180250Z 00000KT CAVOK 19/13 Q1012
TAF LGAD 180200Z 1803/1812 VRB03KT 9999 FEW025 
     BECMG 1806/1808 02010KT
       
LGAL 180250Z VRB03KT CAVOK 19/15 Q1012
TAF LGAL 180200Z 1803/1812 02005KT 9999 FEW025 
     BECMG 1806/1808 02015KT 
     TEMPO 1808/1812 02012G22KT
       
LGAV 180250Z 01008KT CAVOK 27/09 Q1012 NOSIG
TAF LGAV 172300Z 1800/1824 01012KT 9999 FEW025 
     BECMG 1804/1806 02020G30KT 
     TEMPO 1808/1814 02025G35KT 
     BECMG 1816/1818 35012KT
       
LGBL 180250Z 27006KT CAVOK 23/10 Q1013
TAF LGBL 180200Z 1803/1812 28010KT 9999 FEW030 
     BECMG 1807/1809 11010KT
       
LGEL 180250Z 35008KT CAVOK 27/10 Q1011
TAF LGEL 172300Z 1800/1824 35012KT 9999 FEW025 
     BECMG 1805/1807 36015G25KT 
     BECMG 1816/1818 35010KT
       
LGHI 180250Z 01009KT 320V070 CAVOK 25/18 Q1008
TAF LGHI 180200Z 1803/1812 01014KT 9999 FEW025 
     TEMPO 1806/1812 01014G24KT
       
TAF LGIO 180200Z 1803/1812 VRB05KT 9999 FEW030
       
LGIR 180250Z 28009KT 9999 FEW025 26/19 Q1009 NOSIG
TAF LGIR 172300Z 1800/1824 31018KT 9999 FEW020 SCT025
       
TAF LGKC 180200Z 1803/1812 36010KT 9999 FEW020 
     BECMG 1803/1805 01015G25KT
       
LGKF 180250Z 00000KT 9999 FEW016 22/18 Q1012
TAF LGKF 180200Z 1803/1812 VRB05KT 9999 FEW018 
     BECMG 1810/1812 33010KT
       
LGKL 180250Z 32007KT CAVOK 19/11 Q1012
TAF LGKL 180200Z 1803/1812 32008KT 9999 FEW030 
     BECMG 1806/1808 02010KT 
     TEMPO 1808/1812 02010G20KT
       
LGKO 180250Z 36008KT 9999 FEW025 24/18 Q1006
TAF LGKO 172300Z 1800/1824 34010KT 9999 FEW018
       
LGKP 180250Z 31017KT 9999 FEW020 24/22 Q1006
TAF LGKP 180200Z 1803/1812 31018KT 9999 FEW020 
     BECMG 1803/1805 31023G33KT
       
LGKR 180250Z 27002KT CAVOK 22/19 Q1012 NOSIG
TAF LGKR 172300Z 1800/1824 VRB05KT 9999 FEW020 
     TEMPO 1811/1815 26012KT
       
LGKV 180250Z 04004KT CAVOK 20/13 Q1013
TAF LGKV 180200Z 1803/1812 36005KT 9999 FEW025 
     BECMG 1806/1808 05012KT
       
LGLM 180250Z 02008KT CAVOK 25/14 Q1012
TAF LGLM 180200Z 1803/1812 04015KT 9999 FEW020 
     TEMPO 1806/1810 04015G25KT
       
TAF LGLR 180200Z 1803/1812 VRB03KT 9999 FEW030 
     BECMG 1807/1809 09010KT
       
LGMK 180250Z 01013KT CAVOK 23/18 Q1008
TAF LGMK 180200Z 1803/1812 36018KT 9999 FEW018 
     BECMG 1803/1805 36025G35KT
       
LGMT 180250Z 33011KT CAVOK 25/19 Q1010
TAF LGMT 180200Z 1803/1812 32012KT 9999 FEW020
       
LGNX 180250Z 36010KT CAVOK 24/20 Q1008
LGPA 180250Z 01010KT CAVOK 24/18 Q1009
LGPZ 180250Z 07007KT CAVOK 25/21 Q1012
TAF LGPZ 172300Z 1800/1824 05006KT 9999 FEW025 
     BECMG 1810/1812 27012KT 
     TEMPO 1812/1815 FEW025 SCT080 
     BECMG 1822/1824 05006KT
       
LGRP 180250Z VRB02KT CAVOK 25/22 Q1005 NOSIG
TAF LGRP 172300Z 1800/1824 24010KT 9999 FEW018 
     BECMG 1800/1802 15010KT 
     BECMG 1810/1812 26012KT
       
LGRX 180250Z 00000KT CAVOK 21/13 Q1012
TAF LGRX 180200Z 1803/1812 07010KT 9999 FEW025 
     BECMG 1810/1812 27010KT
       
LGSA 180250Z 30006KT 9999 FEW025 24/20 Q1010
TAF LGSA 172300Z 1800/1824 30012KT 9999 FEW025 SCT050 
     BECMG 1804/1806 34015G25KT 
     BECMG 1813/1815 31010KT
       
LGSK 180250Z 00000KT CAVOK 25/21 Q1013
TAF LGSK 180200Z 1803/1812 01008KT 9999 FEW025
       
LGSM 180250Z 02007KT CAVOK 25/17 Q1007
TAF LGSM 180200Z 1803/1812 36013KT 9999 FEW025
       
LGSR 180250Z 28006KT CAVOK 24/18 Q1008
TAF LGSR 172300Z 1800/1824 34015KT CAVOK
       
TAF LGST 180200Z 1803/1812 30015G25KT 9999 FEW020
       
TAF LGSY 180200Z 1803/1812 02015KT 9999 FEW025
       
TAF LGTG 180200Z 1803/1812 33010KT 9999 FEW030 
     TEMPO 1807/1812 35012G22KT
       
TAF LGTL 180200Z 1803/1812 35010KT 9999 FEW018 SCT025 
     TEMPO 1807/1812 35010G22KT
       
LGTS 180250Z 33008KT 9999 FEW035 26/16 Q1014 NOSIG
TAF LGTS 172300Z 1800/1824 30010KT 9999 FEW030 
     BECMG 1812/1814 24010KT 
     BECMG 1818/1820 VRB03KT
       
LGZA 180250Z 00000KT CAVOK 22/17 Q1012
TAF LGZA 180200Z 1803/1812 VRB05KT 9999 FEW020 
     BECMG 1804/1806 01010KT
       
LGSM 180250Z 02007KT CAVOK 25/17 Q1007
TAF LGSM 180200Z 1803/1812 36013KT 9999 FEW025
       
LGSR 180250Z 28006KT CAVOK 24/18 Q1008
TAF LGSR 172300Z 1800/1824 34015KT CAVOK
       
LGSK 180250Z 00000KT CAVOK 25/21 Q1013
TAF LGSK 180200Z 1803/1812 01008KT 9999 FEW025
       
TAF LGSY 180200Z 1803/1812 02015KT 9999 FEW025
       
LGSA 180250Z 30006KT 9999 FEW025 24/20 Q1010
TAF LGSA 172300Z 1800/1824 30012KT 9999 FEW025 SCT050 
     BECMG 1804/1806 34015G25KT 
     BECMG 1813/1815 31010KT
       
TAF LGTG 180200Z 1803/1812 33010KT 9999 FEW030 
     TEMPO 1807/1812 35012G22KT
       
LGAD 180250Z 00000KT CAVOK 19/13 Q1012
TAF LGAD 180200Z 1803/1812 VRB03KT 9999 FEW025 
     BECMG 1806/1808 02010KT
       
LGAL 180250Z VRB03KT CAVOK 19/15 Q1012
TAF LGAL 180200Z 1803/1812 02005KT 9999 FEW025 
     BECMG 1806/1808 02015KT 
     TEMPO 1808/1812 02012G22KT
       
LGAV 180250Z 01008KT CAVOK 27/09 Q1012 NOSIG
TAF LGAV 172300Z 1800/1824 01012KT 9999 FEW025 
     BECMG 1804/1806 02020G30KT 
     TEMPO 1808/1814 02025G35KT 
     BECMG 1816/1818 35012KT
       
LGBL 180250Z 27006KT CAVOK 23/10 Q1013
TAF LGBL 180200Z 1803/1812 28010KT 9999 FEW030 
     BECMG 1807/1809 11010KT
       
LGEL 180250Z 35008KT CAVOK 27/10 Q1011
TAF LGEL 172300Z 1800/1824 35012KT 9999 FEW025 
     BECMG 1805/1807 36015G25KT 
     BECMG 1816/1818 35010KT
       
LGHI 180250Z 01009KT 320V070 CAVOK 25/18 Q1008
TAF LGHI 180200Z 1803/1812 01014KT 9999 FEW025 
     TEMPO 1806/1812 01014G24KT
       
TAF LGIO 180200Z 1803/1812 VRB05KT 9999 FEW030
       
LGIR 180250Z 28009KT 9999 FEW025 26/19 Q1009 NOSIG
TAF LGIR 172300Z 1800/1824 31018KT 9999 FEW020 SCT025
       
TAF LGKC 180200Z 1803/1812 36010KT 9999 FEW020 
     BECMG 1803/1805 01015G25KT
       
LGKF 180250Z 00000KT 9999 FEW016 22/18 Q1012
TAF LGKF 180200Z 1803/1812 VRB05KT 9999 FEW018 
     BECMG 1810/1812 33010KT
       
LGKL 180250Z 32007KT CAVOK 19/11 Q1012
TAF LGKL 180200Z 1803/1812 32008KT 9999 FEW030 
     BECMG 1806/1808 02010KT 
     TEMPO 1808/1812 02010G20KT
       
LGKO 180250Z 36008KT 9999 FEW025 24/18 Q1006
TAF LGKO 172300Z 1800/1824 34010KT 9999 FEW018
       
LGKP 180250Z 31017KT 9999 FEW020 24/22 Q1006
TAF LGKP 180200Z 1803/1812 31018KT 9999 FEW020 
     BECMG 1803/1805 31023G33KT
       
LGKR 180250Z 27002KT CAVOK 22/19 Q1012 NOSIG
TAF LGKR 172300Z 1800/1824 VRB05KT 9999 FEW020 
     TEMPO 1811/1815 26012KT
       
LGKV 180250Z 04004KT CAVOK 20/13 Q1013
TAF LGKV 180200Z 1803/1812 36005KT 9999 FEW025 
     BECMG 1806/1808 05012KT
       
LGLM 180250Z 02008KT CAVOK 25/14 Q1012
TAF LGLM 180200Z 1803/1812 04015KT 9999 FEW020 
     TEMPO 1806/1810 04015G25KT
       
TAF LGLR 180200Z 1803/1812 VRB03KT 9999 FEW030 
     BECMG 1807/1809 09010KT
       
LGMK 180250Z 01013KT CAVOK 23/18 Q1008
TAF LGMK 180200Z 1803/1812 36018KT 9999 FEW018 
     BECMG 1803/1805 36025G35KT
       
LGMT 180250Z 33011KT CAVOK 25/19 Q1010
TAF LGMT 180200Z 1803/1812 32012KT 9999 FEW020
       
LGNX 180250Z 36010KT CAVOK 24/20 Q1008
LGPA 180250Z 01010KT CAVOK 24/18 Q1009
LGPZ 180250Z 07007KT CAVOK 25/21 Q1012
TAF LGPZ 172300Z 1800/1824 05006KT 9999 FEW025 
     BECMG 1810/1812 27012KT 
     TEMPO 1812/1815 FEW025 SCT080 
     BECMG 1822/1824 05006KT
       
LGRP 180250Z VRB02KT CAVOK 25/22 Q1005 NOSIG
TAF LGRP 172300Z 1800/1824 24010KT 9999 FEW018 
     BECMG 1800/1802 15010KT 
     BECMG 1810/1812 26012KT
       
LGRX 180250Z 00000KT CAVOK 21/13 Q1012
TAF LGRX 180200Z 1803/1812 07010KT 9999 FEW025 
     BECMG 1810/1812 27010KT
       
LGSA 180250Z 30006KT 9999 FEW025 24/20 Q1010
TAF LGSA 172300Z 1800/1824 30012KT 9999 FEW025 SCT050 
     BECMG 1804/1806 34015G25KT 
     BECMG 1813/1815 31010KT
       
LGSK 180250Z 00000KT CAVOK 25/21 Q1013
TAF LGSK 180200Z 1803/1812 01008KT 9999 FEW025
       
LGSM 180250Z 02007KT CAVOK 25/17 Q1007
TAF LGSM 180200Z 1803/1812 36013KT 9999 FEW025
       
LGSR 180250Z 28006KT CAVOK 24/18 Q1008
TAF LGSR 172300Z 1800/1824 34015KT CAVOK
       
TAF LGST 180200Z 1803/1812 30015G25KT 9999 FEW020
       
TAF LGSY 180200Z 1803/1812 02015KT 9999 FEW025
       
TAF LGTG 180200Z 1803/1812 33010KT 9999 FEW030 
     TEMPO 1807/1812 35012G22KT
       
TAF LGTL 180200Z 1803/1812 35010KT 9999 FEW018 SCT025 
     TEMPO 1807/1812 35010G22KT
       
LGTS 180250Z 33008KT 9999 FEW035 26/16 Q1014 NOSIG
TAF LGTS 172300Z 1800/1824 30010KT 9999 FEW030 
     BECMG 1812/1814 24010KT 
     BECMG 1818/1820 VRB03KT
       
LGZA 180250Z 00000KT CAVOK 22/17 Q1012
TAF LGZA 180200Z 1803/1812 VRB05KT 9999 FEW020 
     BECMG 1804/1806 01010KT
       
LGZA 180250Z 00000KT CAVOK 22/17 Q1012
TAF LGZA 180200Z 1803/1812 VRB05KT 9999 FEW020 
     BECMG 1804/1806 01010KT